NOAA 16 DEB, 41243

Orbit data source: Space-Track

NOAA 16 DEB, 41243 is space debris in SSO originally from a launch on Thu, 21 Sep 2000 UTC launched from the Air Force Western Test Range (AFWTR). Debris objects in space refer to the collection of defunct objects orbiting the Earth. Examples of debris include non-operational satellites, rocket bodies, and fragments generated from explosions, collisions, or faulty payload assembly.

Loading next visibility...
Identifier
41243, 2000-055ET
Orbit
SSO
Country
Flag of USUS
Related business
Manufacturer
Unknown
Mission
Spacecraft
Bus & Motor
Unknown
Mass
Unknown
Launch date (UTC)
2000-09-21 (26 years ago)
Launch vehicle
Unknown
Launch site
Air Force Western Test Range (AFWTR)
Object type
Payload
Rocket body
Debris
Shape & HBR
Unknown shape, 0.1 m
Radar Cross Section
Small (<0.1 m²)

Expand to show TLE details & history
Last TLE update: 3 days ago

TLE from 3 days ago
0 NOAA 16 DEB
1 41243U 00055ET  26170.67998727  .00002264  00000-0  92196-3 0  9999
2 41243  98.7263 254.2609 0004402  77.4166 282.7507 14.28455900540503
Epoch: 2026-06-19T16:19Z
TLE epoch observation values (Epoch: 2026-06-19T16:19:10.900Z)
Latitude
-0.00002°
Longitude
101.55999°
Altitude
799.126 km
Speed
7.454 km/s
True Right ascension
16h 57m 02s
True Declination
0° 00' 00"
Sunlit
Object was in full shadow at epoch
Visualization orbit readout
Latitude
Unknown
Longitude
Unknown
Altitude
Unknown
Speed
Unknown
Apparent Right ascension
Unknown
Apparent Declination
Unknown
Sunlit
N/A
Visualization observer readout
Local Sidereal Time
21:37:06
Azimuth
Unknown
Elevation
Unknown
Doppler factor
Unknown
Orbital elements
Apogee altitude
797.202 km
Perigee altitude
790.888 km
Semi-major axis
7,172.182 km
Eccentricity
0.00044
Inclination
98.7263°
RAAN
254.2609°
Arg. of periapsis
77.4166°
True anomaly
282.70149°
Mean anomaly
282.7507°
Eccentric anomaly
282.7261°
Mean motion
3.57327 °/min
Orbital period
100.75 mins
BSTAR
0.00092196
Loading maneuver chart data...
Computing Atmospheric mass density...
Loading historical data...
Loading historical data...
Loading historical data...
Loading historical data...
Loading historical data...
Loading historical data...
Loading historical data...

Documentation

Showing up to 5 results
|